April 16-17, 2016
Bucknell
- Lewisburg, PA
Men 5000m Run Unseeded
Top↑
| PL | NAME | YEAR | TEAM | TIME | TIME | TIME | TIME | TIME |
|---|---|---|---|---|---|---|---|---|
| 1 | Mitch Ryan | JR-3 | Cortland St. | 14:42.23 | 11:54.61 | 17:21.04 | 16:19.28 | 18:49.26 |
| 2 | Jarred Iacovelli | SR-4 | Cortland St. | 14:43.50 | 12:30.98 | 12:22.14 | 12:48.65 | 18:59.72 |
| 3 | Naimbai Njerakey | JR-3 | Walsh | 14:44.19 | 15:54.93 | 13:51.14 | 12:49.25 | 15:28.40 |
| 4 | Carter Smith | SO-2 | Allegheny | 14:45.24 | 17:06.88 | 17:15.73 | 18:35.41 | 11:03.93 |
| 5 | Sean Burke | SR-4 | Lehigh | 14:45.64 | 18:53.62 | 16:05.35 | 16:14.21 | 16:14.21 |
| 6 | Jean-Simon Desgagnes | Freshman | Universite Laval | 14:46.57 | 14:02.25 | 10:20.60 | 17:08.43 | 18:19.35 |
| 7 | Shawn Lake | Unattached | 14:47.11 | 17:00.18 | 19:04.38 | 15:58.08 | 13:00.66 | |
| 8 | Stephan Listabarth | JR-3 | Temple | 14:50.26 | 15:08.07 | 16:37.10 | 10:32.09 | 15:16.97 |
| 9 | Andrew Kuchta | SR-4 | Bucknell | 14:50.86 | 13:12.87 | 19:18.12 | 17:57.94 | 16:02.13 |
| 10 | Michael Anvelt | SR-4 | Canisius | 14:51.85 | 13:13.75 | 19:10.49 | 18:43.74 | 17:59.14 |
| 11 | RYAN BLOOD | Appalachian Running Co. | 14:52.64 | 13:32.31 | 18:26.88 | 11:36.26 | 19:20.44 | |
| 12 | Dominic Stroh | FR-1 | Shippensburg | 14:53.50 | 11:28.00 | 17:07.53 | 18:45.81 | 12:48.41 |
| 13 | Brian Arita | FR-1 | Lehigh | 14:53.93 | 11:55.15 | 12:30.91 | 19:04.23 | 13:24.54 |
| 14 | Baron Kieffer | FR-1 | Virginia Tech | 14:53.95 | 16:50.17 | 11:46.22 | 11:19.41 | 13:15.62 |
| 15 | David Busby | JR-3 | Oneonta | 14:54.46 | 11:46.63 | 13:25.02 | 14:45.52 | 16:41.80 |
| 16 | Forrest Hangen | FR-1 | Rochester | 14:55.00 | 15:21.85 | 19:05.60 | 16:42.40 | 11:02.30 |
| 17 | Andrew Kirna | SR-4 | Bucknell | 14:55.51 | 14:37.60 | 18:39.39 | 16:34.02 | 15:49.24 |
| 18 | Scott Mason | SO-2 | Lehigh | 14:56.87 | 16:44.50 | 11:39.56 | 14:12.03 | 14:47.91 |
| 19 | Ben Lehotay | JR-3 | Walsh | 14:58.61 | 14:22.67 | 14:22.67 | 13:28.75 | 11:13.96 |
| 20 | George McCartney | FR-1 | Malone | 14:59.96 | 13:20.97 | 14:23.97 | 19:02.95 | 11:59.97 |
| 21 | Matt Gillette | Unattached | 15:00.28 | 19:12.36 | 17:06.32 | 13:39.26 | 14:33.28 | |
| 22 | Lukasz Olenginski | Georgetown Running Company | 15:01.17 | 11:42.92 | 14:25.13 | 16:04.26 | 17:16.35 | |
| 23 | Spencer Johnson | JR-3 | Marist | 15:02.11 | 18:56.66 | 18:38.62 | 17:26.45 | 17:08.41 |
| 24 | Eli Howard | SR-4 | Dickinson | 15:02.47 | 18:02.97 | 13:32.23 | 11:16.86 | 15:11.50 |
| 25 | Collin Hahn | FR-1 | Virginia Tech | 15:03.18 | 13:59.96 | 11:26.42 | 14:27.06 | 14:08.99 |
| 26 | Luis Carbajal | SR-4 | Malone | 15:04.14 | 14:00.85 | 11:45.23 | 14:18.94 | 19:26.34 |
| 27 | Matthew Guiod | Senior | Keystone Track Club | 15:04.29 | 17:19.94 | 19:26.54 | 10:33.01 | 19:08.45 |
| 28 | John Hughes | SO-2 | Allegheny | 15:04.72 | 12:49.02 | 14:37.58 | 17:11.38 | 18:05.67 |
| 29 | Ben Evans | FR-1 | Temple | 15:04.73 | 14:01.40 | 18:59.96 | 11:27.60 | 11:18.55 |
| 30 | Alex Burks | FR-1 | SUNY Geneseo | 15:05.33 | 17:39.24 | 11:09.95 | 12:58.59 | 10:42.79 |
| 31 | Kyle Wagener | Georgetown Running Company | 15:07.14 | 14:30.86 | 10:53.14 | 19:03.00 | 19:12.07 | |
| 32 | Nathaniel Kozyra | SR-4 | Binghamton | 15:08.27 | 16:20.94 | 18:19.01 | 14:22.86 | 15:53.69 |
| 33 | John Panus | SR-4 | SUNY Geneseo | 15:08.60 | 16:48.55 | 15:54.03 | 13:28.66 | 17:15.81 |
| 34 | Nate Boyer | JR-3 | Malone | 15:09.21 | 15:45.58 | 17:25.60 | 18:29.24 | 18:56.52 |
| 35 | Jonathan Vallecorsa | SR-4 | Binghamton | 15:09.40 | 15:00.31 | 15:27.59 | 12:52.99 | 19:05.85 |
| 36 | Harrison Schettler | JR-3 | Shippensburg | 15:10.71 | 17:45.53 | 18:03.75 | 12:26.79 | 18:03.75 |
| 37 | Matthew Herbert | SR-4 | SUNY Geneseo | 15:11.46 | 13:49.43 | 16:24.38 | 18:13.76 | 16:51.72 |
| 38 | Kyle Leonard | JR-3 | Lehigh | 15:13.20 | 19:47.16 | 12:47.09 | 14:45.81 | 13:23.62 |
| 39 | William Randall | FR-1 | Siena | 15:13.48 | 14:36.94 | 10:39.44 | 12:19.92 | 19:01.85 |
| 40 | Colin Greenseich | SO-2 | Oswego State | 15:13.69 | 15:41.10 | 18:52.98 | 15:41.10 | 11:07.00 |
| 41 | Matt Baffuto | FR-1 | Marist | 15:14.35 | 19:12.09 | 19:48.66 | 12:38.91 | 12:48.06 |
| 42 | Devin Akerley | FR-1 | Oneonta | 15:14.60 | 11:07.66 | 16:27.77 | 17:04.36 | 17:31.79 |
| 43 | Alexander Predhome | JR-3 | Dickinson | 15:15.09 | 18:08.96 | 17:04.90 | 11:53.77 | 17:23.21 |
| 44 | Evan Ward | SR-4 | Lehigh | 15:15.86 | 14:02.60 | 19:41.46 | 13:35.12 | 16:29.13 |
| 45 | Kyle Mueller | FR-1 | Monmouth | 15:16.62 | 18:19.95 | 10:41.64 | 16:39.12 | 15:07.46 |
| 46 | Calvin Conrad-Kline | JR-3 | Shippensburg | 15:17.40 | 12:50.62 | 19:34.28 | 11:00.53 | 12:50.62 |
| 47 | Mike Custance | JR-3 | SUNY Geneseo | 15:18.21 | 17:54.31 | 14:41.49 | 11:47.03 | 16:40.85 |
| 48 | Zachary Simmons | SR-4 | Dickinson | 15:18.68 | 13:19.26 | 13:10.07 | 12:51.70 | 17:54.86 |
| 49 | Sean Welch | FR-1 | SUNY Geneseo | 15:18.81 | 12:05.86 | 16:04.75 | 18:22.58 | 12:24.24 |
| 50 | John Crowe | SR-4 | Susquehanna | 15:19.05 | 13:01.20 | 18:22.86 | 13:47.15 | 11:10.91 |
| 51 | Jake Austin | Unattached | 15:19.36 | 11:38.72 | 12:24.69 | 16:23.72 | 14:15.01 | |
| 52 | Jake Howell | SO-2 | Monmouth | 15:19.84 | 17:56.22 | 19:00.61 | 18:33.01 | 17:19.42 |
| 53 | Cole Nissley | SO-2 | Shippensburg | 15:20.81 | 15:11.61 | 15:57.65 | 17:20.52 | 19:01.81 |
| 54 | Gustavo Gonzalez | SO-2 | Canisius | 15:22.80 | 14:55.12 | 15:50.49 | 13:22.84 | 19:59.64 |
| 55 | Steven Rizzo | SO-2 | Marist | 15:23.75 | 14:37.57 | 14:00.62 | 16:00.70 | 16:00.70 |
| 56 | Andrew Snyder | SR-4 | John Carroll | 15:24.36 | 17:06.04 | 19:43.18 | 16:10.58 | 13:33.44 |
| 57 | CJ Bauer | JR-3 | Kutztown | 15:24.68 | 18:29.62 | 16:01.67 | 17:52.63 | 17:15.65 |
| 58 | Will Maltin | SR-4 | Temple | 15:25.05 | 18:39.31 | 17:53.06 | 14:01.80 | 15:25.05 |
| 59 | Alex Zubko | SR-4 | East Stroudsburg | 15:25.25 | 16:11.52 | 16:30.02 | 18:30.30 | 12:57.21 |
| 60 | Hunter Phinney | FR-1 | Rochester | 15:26.19 | 12:48.74 | 17:54.38 | 14:02.84 | 13:44.31 |
| 61 | Scott McGeary | Unattached | 15:26.48 | 16:22.07 | 12:48.98 | 19:45.90 | 14:49.42 | |
| 62 | Justin Maroni | SO-2 | Walsh | 15:27.03 | 13:26.52 | 18:23.17 | 10:58.20 | 19:55.87 |
| 63 | Daryn Hutchings | Freshman | Unattached | 15:27.09 | 11:16.78 | 19:00.32 | 19:46.68 | 15:27.09 |
| 64 | Palmer Weimann | FR-1 | Marist | 15:27.54 | 14:59.72 | 18:23.78 | 17:46.67 | 18:05.23 |
| 65 | Jack Denison | Philadelphia Runner Track | 15:28.73 | 19:48.78 | 12:32.28 | 12:41.56 | 19:58.07 | |
| 66 | Owen Glatts | SR-4 | Temple | 15:28.81 | 18:43.86 | 13:46.64 | 11:36.61 | 17:48.14 |
| 67 | Alex Simon | Unattached | 15:29.02 | 18:34.83 | 12:32.51 | 13:18.96 | 14:14.70 | |
| 68 | Gabe Bender | SR-4 | Canisius | 15:29.35 | 16:34.41 | 19:40.28 | 16:06.53 | 14:15.01 |
| 69 | Elliot Thorkelson | SO-2 | John Carroll | 15:29.57 | 18:54.08 | 19:12.67 | 15:57.46 | 19:59.15 |
| 70 | Brendan Wortner | SR-4 | SUNY Geneseo | 15:29.82 | 15:48.42 | 16:25.61 | 13:01.05 | 12:42.46 |
| 71 | Brett Cortelletti | FR-1 | Malone | 15:30.00 | 19:13.20 | 11:28.20 | 13:19.80 | 19:22.50 |
| 72 | Aaron Robertson | Runner's Edge | 15:31.25 | 13:48.82 | 14:07.44 | 16:36.44 | 18:09.57 | |
| 73 | Jeremy Rapposelli | SO-2 | East Stroudsburg | 15:32.04 | 14:36.12 | 18:01.17 | 20:11.66 | 16:37.29 |
| 74 | Matt Svetz | FR-1 | Allegheny | 15:32.83 | 19:07.38 | 13:12.91 | 14:08.88 | 11:48.95 |
| 75 | Jesse Capellaro | JR-3 | Ithaca | 15:33.46 | 20:04.17 | 18:58.83 | 15:33.46 | 12:08.10 |
| 76 | Thomas Papish | SO-2 | RIT | 15:34.18 | 16:39.58 | 13:42.08 | 18:12.99 | 17:44.97 |
| 77 | Mark Pfaeffle | SR-4 | Kutztown | 15:34.50 | 10:54.15 | 13:51.71 | 18:32.06 | 14:19.74 |
| 78 | Jeremy Riggotti | FR-1 | East Stroudsburg | 15:35.07 | 19:38.19 | 16:40.53 | 11:22.61 | 14:48.32 |
| 79 | Bradley Kilheeney | JR-3 | DeSales | 15:35.44 | 12:09.65 | 19:29.30 | 13:52.55 | 16:03.51 |
| 80 | Patrick Crowley | FR-1 | Canisius | 15:36.18 | 15:26.82 | 20:07.68 | 17:37.89 | 14:40.01 |
| 81 | Spencer Ziegler | JR-3 | Malone | 15:36.59 | 19:58.84 | 13:16.11 | 13:53.57 | 17:00.89 |
| 82 | Ryan Brennan | FR-1 | Oneonta | 15:40.61 | 12:51.30 | 16:08.83 | 14:34.77 | 11:07.84 |
| 83 | Zachary Despreaux | JR-3 | Shippensburg | 15:40.65 | 15:50.06 | 19:26.41 | 11:36.09 | 11:36.09 |
| 84 | Dylan McCarthy | FR-1 | Oswego State | 15:40.87 | 12:51.52 | 20:23.14 | 15:50.28 | 10:58.61 |
| 85 | Itai Bezherano | Freshman | Unattached | 15:41.10 | 17:34.04 | 18:02.27 | 13:38.76 | 18:58.74 |
| 86 | Dominic Patrick | SR-4 | Edinboro | 15:41.35 | 18:21.38 | 18:30.80 | 13:10.74 | 13:10.74 |
| 87 | Jesse Perrone | SO-2 | Cortland St. | 15:41.72 | 14:26.39 | 16:28.81 | 19:55.99 | 15:04.06 |
| 88 | Zach Toner | JR-3 | Marist | 15:41.83 | 13:29.98 | 20:14.96 | 15:04.16 | 18:12.53 |
| 89 | Tim Mateer | Unattached | 15:42.43 | 12:33.95 | 16:48.40 | 16:57.83 | 13:11.65 | |
| 90 | Jeff Henderson | SO-2 | Slippery Rock | 15:42.49 | 18:22.72 | 17:35.59 | 11:18.60 | 13:11.70 |
| 91 | Danny Dugan | SO-2 | Bloomsburg | 15:43.28 | 16:02.15 | 14:56.12 | 11:09.73 | 17:17.61 |
| 92 | Matthew Taylor | Junior | Unattached | 15:43.68 | 12:44.38 | 15:05.94 | 17:36.93 | 11:47.76 |
| 93 | Landin Delaney | FR-1 | Bucknell | 15:44.17 | 16:59.71 | 12:44.78 | 18:24.68 | 12:07.01 |
| 94 | Andrew Zeccola | SR-4 | Rochester | 15:44.71 | 13:04.11 | 11:57.98 | 19:59.79 | 17:38.08 |
| 95 | Mark Harrel | JR-3 | Susquehanna | 15:46.57 | 18:55.89 | 16:43.37 | 11:49.93 | 20:30.55 |
| 96 | Dan Isenberg | SR-4 | Susquehanna | 15:47.02 | 20:12.19 | 12:47.09 | 11:50.27 | 15:28.08 |
| 97 | Will Ronchetti | SO-2 | Cornell | 15:47.16 | 14:12.45 | 13:25.09 | 16:34.52 | 15:09.28 |
| 98 | Charlie Frank | SR-4 | Slippery Rock | 15:49.79 | 14:33.81 | 19:37.74 | 12:20.84 | 17:43.77 |
| 99 | Sal Wright | JR-3 | Siena | 15:53.31 | 18:54.44 | 18:16.31 | 17:09.58 | 13:49.38 |
| 100 | Ryan Mitchell | FR-1 | Monmouth | 15:54.13 | 16:51.38 | 18:45.88 | 12:52.85 | 13:11.93 |
| 101 | Duncan Hopkins | FR-1 | Dickinson | 15:54.18 | 17:00.98 | 17:00.98 | 16:51.43 | 14:56.93 |
| 102 | Colin Radabaugh | SO-2 | Wheeling Jesuit | 15:56.50 | 12:16.51 | 19:36.50 | 13:04.33 | 16:34.76 |
| 103 | Gabe Lamm | FR-1 | DeSales | 15:57.83 | 17:14.46 | 17:04.88 | 16:16.99 | 16:07.41 |
| 104 | Chad Bomgardner | SO-2 | Lebanon Valley | 15:59.94 | 18:04.74 | 18:23.94 | 13:35.95 | 18:14.34 |
| 105 | Michael Cossaro | SR-4 | Brockport St. | 16:02.48 | 16:12.11 | 17:38.73 | 11:13.74 | 15:52.86 |
| 106 | Jesse Jones | SR-4 | Mansfield | 16:06.87 | 20:18.26 | 19:10.58 | 13:41.84 | 18:41.57 |
| 107 | Nick McGuire | FR-1 | Bloomsburg | 16:09.27 | 18:54.05 | 14:12.96 | 17:17.12 | 11:28.19 |
| 108 | Dylan Brickner | FR-1 | Brockport St. | 16:10.11 | 15:50.71 | 20:41.74 | 17:27.72 | 18:16.23 |
| 109 | Shane Ramdeo | FR-1 | Temple | 16:11.71 | 11:49.35 | 20:43.79 | 19:55.21 | 16:50.58 |
| 110 | Chad Dunham | FR-1 | Oneonta | 16:15.40 | 20:19.25 | 13:58.85 | 18:02.70 | 20:09.50 |
| 111 | Dan Buccino | SO-2 | East Stroudsburg | 16:36.51 | 12:47.32 | 13:27.18 | 18:26.13 | 19:45.85 |
| 112 | Michael Larkin | JR-3 | Brockport St. | 16:47.16 | 18:27.88 | 19:38.38 | 13:55.95 | 17:27.45 |
| Kyle Skelton | SO-2 | Susquehanna | DNF | DNF | DNF | DNF | DNF | |
| Jake Hensler | JR-3 | Marist | DNF | DNF | DNF | DNF | DNF | |
| Thomas Day | SR-4 | Lafayette | DNF | DNF | DNF | DNF | DNF | |
| Scott Geiger | Unattached | DNF | DNF | DNF | DNF | DNF | ||
| Mathew Moody | SR-4 | Adelphi | DNF | DNF | DNF | DNF | DNF | |
| Wade Miller | Unattached | DNF | DNF | DNF | DNF | DNF |
Men 5000m Run Unseeded Section 1
| PL | NAME | YEAR | TEAM | TIME | TIME | TIME | TIME | TIME | TIME | TIME |
|---|---|---|---|---|---|---|---|---|---|---|
| 54 | Gustavo Gonzalez | SO-2 | Canisius | 15:22.80 | 17:41.22 | 14:18.21 | 10:55.19 | 19:59.64 | 19:22.73 | 11:50.56 |
| 62 | Justin Maroni | SO-2 | Walsh | 15:27.03 | 15:17.76 | 14:31.41 | 14:12.87 | 16:59.74 | 12:40.17 | 17:09.01 |
| 68 | Gabe Bender | SR-4 | Canisius | 15:29.35 | 18:44.52 | 19:12.40 | 11:27.72 | 13:09.95 | 13:47.13 | 19:03.10 |
| 71 | Brett Cortelletti | FR-1 | Malone | 15:30.00 | 17:12.30 | 17:12.30 | 18:26.70 | 12:05.40 | 14:15.60 | 17:58.80 |
| 72 | Aaron Robertson | Runner's Edge | 15:31.25 | 17:23.00 | 18:09.57 | 12:06.38 | 18:46.82 | 12:43.63 | 13:20.88 | |
| 77 | Mark Pfaeffle | SR-4 | Kutztown | 15:34.50 | 16:11.88 | 14:19.74 | 15:15.81 | 13:23.67 | 15:25.16 | 13:14.33 |
| 78 | Jeremy Riggotti | FR-1 | East Stroudsburg | 15:35.07 | 14:57.67 | 16:49.88 | 16:21.83 | 18:04.69 | 11:31.96 | 16:31.18 |
| 79 | Bradley Kilheeney | JR-3 | DeSales | 15:35.44 | 11:41.58 | 18:42.53 | 16:12.86 | 16:50.28 | 18:14.47 | 20:16.08 |
| 80 | Patrick Crowley | FR-1 | Canisius | 15:36.18 | 14:58.74 | 15:45.55 | 11:04.69 | 17:00.44 | 16:13.63 | 15:45.55 |
| 82 | Ryan Brennan | FR-1 | Oneonta | 15:40.61 | 17:52.30 | 13:10.12 | 17:42.89 | 14:06.55 | 16:46.46 | 16:18.24 |
| 86 | Dominic Patrick | SR-4 | Edinboro | 15:41.35 | 12:23.67 | 19:08.45 | 18:49.62 | 11:08.36 | 13:48.39 | 18:11.97 |
| 88 | Zach Toner | JR-3 | Marist | 15:41.83 | 12:14.63 | 11:27.54 | 18:59.62 | 16:47.76 | 15:51.25 | 12:52.30 |
| 90 | Jeff Henderson | SO-2 | Slippery Rock | 15:42.49 | 16:20.19 | 11:18.60 | 13:02.27 | 15:33.07 | 17:07.32 | 14:17.67 |
| 91 | Danny Dugan | SO-2 | Bloomsburg | 15:43.28 | 13:31.22 | 19:29.67 | 15:33.85 | 15:43.28 | 12:44.06 | 13:50.09 |
| 93 | Landin Delaney | FR-1 | Bucknell | 15:44.17 | 12:54.22 | 18:15.24 | 15:34.73 | 16:12.50 | 14:00.32 | 17:37.47 |
| 95 | Mark Harrel | JR-3 | Susquehanna | 15:46.57 | 20:02.15 | 13:43.52 | 13:05.66 | 14:11.92 | 11:12.07 | 17:49.63 |
| 96 | Dan Isenberg | SR-4 | Susquehanna | 15:47.02 | 15:56.49 | 11:02.92 | 14:50.20 | 14:59.67 | 12:09.21 | 20:02.72 |
| 102 | Colin Radabaugh | SO-2 | Wheeling Jesuit | 15:56.50 | 12:45.20 | 17:22.59 | 17:03.46 | 15:56.50 | 13:33.03 | 13:52.16 |
| 103 | Gabe Lamm | FR-1 | DeSales | 15:57.83 | 19:28.56 | 19:57.29 | 18:11.93 | 12:46.27 | 13:43.74 | 17:04.88 |
| 105 | Michael Cossaro | SR-4 | Brockport St. | 16:02.48 | 18:36.48 | 17:38.73 | 18:17.23 | 20:51.23 | 16:50.61 | 16:50.61 |
| 107 | Nick McGuire | FR-1 | Bloomsburg | 16:09.27 | 17:07.43 | 15:49.89 | 14:03.27 | 11:37.88 | 12:55.42 | 20:21.28 |
| 108 | Dylan Brickner | FR-1 | Brockport St. | 16:10.11 | 13:34.90 | 14:33.10 | 19:33.84 | 12:26.99 | 11:38.48 | 16:00.41 |
| 109 | Shane Ramdeo | FR-1 | Temple | 16:11.71 | 12:37.94 | 21:03.23 | 13:55.67 | 12:08.79 | 16:50.58 | 17:48.89 |
| 110 | Chad Dunham | FR-1 | Oneonta | 16:15.40 | 20:29.01 | 13:29.59 | 16:54.42 | 21:08.02 | 14:47.62 | 21:08.02 |
| 111 | Dan Buccino | SO-2 | East Stroudsburg | 16:36.51 | 20:35.68 | 20:55.61 | 18:46.06 | 19:55.82 | 15:56.65 | 17:46.27 |
| 112 | Michael Larkin | JR-3 | Brockport St. | 16:47.16 | 18:58.09 | 17:37.52 | 13:15.66 | 16:47.16 | 16:47.16 | 16:06.88 |
| Kyle Skelton | SO-2 | Susquehanna | DNF | DNF | DNF | DNF | DNF | DNF | DNF |
Men 5000m Run Unseeded Section 2
| PL | NAME | YEAR | TEAM | TIME | TIME | TIME | TIME | TIME | TIME |
|---|---|---|---|---|---|---|---|---|---|
| 39 | William Randall | FR-1 | Siena | 14:27.81 | 11:25.11 | 15:13.48 | 15:50.02 | 18:16.18 | 18:34.45 |
| 48 | Zachary Simmons | SR-4 | Dickinson | 15:18.68 | 15:55.43 | 15:18.68 | 18:13.23 | 13:37.63 | 12:24.13 |
| 58 | Will Maltin | SR-4 | Temple | 17:25.31 | 14:48.05 | 15:25.05 | 16:39.06 | 15:15.80 | 16:02.06 |
| 59 | Alex Zubko | SR-4 | East Stroudsburg | 11:43.19 | 18:58.06 | 15:25.25 | 17:34.79 | 12:47.96 | 18:48.81 |
| 60 | Hunter Phinney | FR-1 | Rochester | 12:48.74 | 17:45.12 | 15:26.19 | 15:16.93 | 12:20.96 | 17:17.34 |
| 61 | Scott McGeary | Unattached | 10:57.80 | 19:55.16 | 15:26.48 | 14:40.16 | 16:40.60 | 19:36.63 | |
| 65 | Jack Denison | Philadelphia Runner Track | 18:43.77 | 13:28.00 | 15:28.73 | 13:55.86 | 19:30.20 | 17:01.61 | |
| 66 | Owen Glatts | SR-4 | Temple | 19:58.17 | 18:06.71 | 15:28.81 | 12:50.92 | 19:58.17 | 11:27.32 |
| 67 | Alex Simon | Unattached | 18:16.25 | 17:20.51 | 15:29.02 | 19:49.15 | 15:47.60 | 14:05.41 | |
| 73 | Jeremy Rapposelli | SO-2 | East Stroudsburg | 11:57.67 | 12:44.28 | 15:32.04 | 16:55.93 | 20:02.34 | 15:32.04 |
| 74 | Matt Svetz | FR-1 | Allegheny | 18:11.42 | 17:34.10 | 15:32.83 | 14:18.21 | 17:06.12 | 14:46.19 |
| 75 | Jesse Capellaro | JR-3 | Ithaca | 16:10.80 | 17:53.48 | 15:33.46 | 15:05.46 | 16:48.14 | 14:46.79 |
| 76 | Thomas Papish | SO-2 | RIT | 18:59.70 | 12:27.35 | 15:34.18 | 13:04.72 | 18:41.02 | 19:46.41 |
| 81 | Spencer Ziegler | JR-3 | Malone | 14:49.76 | 14:49.76 | 15:36.59 | 14:21.67 | 11:33.08 | 17:47.72 |
| 83 | Zachary Despreaux | JR-3 | Shippensburg | 13:28.96 | 12:23.12 | 15:40.65 | 15:03.03 | 18:20.56 | 15:03.03 |
| 89 | Tim Mateer | Unattached | 13:49.34 | 13:49.34 | 15:42.43 | 13:58.77 | 17:54.37 | 19:19.19 | |
| 92 | Matthew Taylor | Junior | Unattached | 13:59.88 | 18:24.11 | 15:43.68 | 13:03.26 | 15:53.12 | 14:09.32 |
| 98 | Charlie Frank | SR-4 | Slippery Rock | 17:34.27 | 13:17.83 | 15:49.79 | 13:27.33 | 16:46.78 | 17:05.78 |
| 99 | Sal Wright | JR-3 | Siena | 20:29.77 | 16:21.91 | 15:53.31 | 14:56.12 | 17:28.65 | 12:04.52 |
| 100 | Ryan Mitchell | FR-1 | Monmouth | 13:50.10 | 20:21.29 | 15:54.13 | 14:37.80 | 11:26.98 | 11:46.06 |
| 104 | Chad Bomgardner | SO-2 | Lebanon Valley | 12:47.96 | 11:21.56 | 15:59.94 | 18:14.34 | 15:21.55 | 12:47.96 |
Men 5000m Run Unseeded Section 3
Men 5000m Run Unseeded Section 4
| PL | NAME | YEAR | TEAM | TIME | TIME | TIME | TIME | TIME | TIME |
|---|---|---|---|---|---|---|---|---|---|
| 1 | Mitch Ryan | JR-3 | Cortland St. | 13:49.30 | 11:28.14 | 11:45.79 | 15:52.81 | 10:44.03 | 14:42.23 |
| 2 | Jarred Iacovelli | SR-4 | Cortland St. | 10:36.12 | 17:04.86 | 17:31.37 | 17:49.04 | 13:59.33 | 14:43.50 |
| 3 | Naimbai Njerakey | JR-3 | Walsh | 17:23.35 | 15:10.72 | 13:59.98 | 13:33.46 | 16:12.61 | 14:44.19 |
| 4 | Carter Smith | SO-2 | Allegheny | 10:19.67 | 12:32.46 | 17:42.29 | 15:47.21 | 11:48.20 | 14:45.24 |
| 5 | Sean Burke | SR-4 | Lehigh | 18:44.77 | 10:37.66 | 12:50.51 | 17:33.92 | 11:13.09 | 14:45.64 |
| 6 | Jean-Simon Desgagnes | Freshman | Universite Laval | 15:48.63 | 14:37.71 | 10:47.20 | 17:17.29 | 12:24.72 | 14:46.57 |
| 7 | Shawn Lake | Unattached | 15:40.34 | 10:29.85 | 18:02.28 | 17:09.05 | 11:58.56 | 14:47.11 | |
| 8 | Stephan Listabarth | JR-3 | Temple | 12:36.73 | 15:16.97 | 11:34.41 | 13:03.43 | 10:49.89 | 14:50.26 |
| 9 | Andrew Kuchta | SR-4 | Bucknell | 14:59.77 | 11:17.06 | 16:55.58 | 13:03.96 | 15:17.59 | 14:50.86 |
| 11 | RYAN BLOOD | Appalachian Running Co. | 15:28.35 | 17:51.17 | 18:44.73 | 12:38.75 | 15:10.50 | 14:52.64 | |
| 13 | Brian Arita | FR-1 | Lehigh | 17:25.90 | 10:43.63 | 18:10.60 | 18:10.60 | 16:14.39 | 14:53.93 |
| 14 | Baron Kieffer | FR-1 | Virginia Tech | 15:29.71 | 16:32.29 | 13:24.56 | 16:14.41 | 10:34.71 | 14:53.95 |
| 15 | David Busby | JR-3 | Oneonta | 11:37.68 | 19:04.91 | 16:14.97 | 12:31.35 | 18:11.25 | 14:54.46 |
| 16 | Forrest Hangen | FR-1 | Rochester | 14:01.30 | 12:49.70 | 10:26.50 | 18:47.70 | 18:56.65 | 14:55.00 |
| 17 | Andrew Kirna | SR-4 | Bucknell | 14:46.56 | 12:50.14 | 12:41.19 | 15:13.42 | 18:30.44 | 14:55.51 |
| 18 | Scott Mason | SO-2 | Lehigh | 19:08.00 | 11:30.59 | 11:12.66 | 14:47.91 | 10:27.81 | 14:56.87 |
| 19 | Ben Lehotay | JR-3 | Walsh | 14:13.68 | 13:01.79 | 13:01.79 | 12:52.81 | 16:28.48 | 14:58.61 |
| 21 | Matt Gillette | Unattached | 19:12.36 | 14:42.28 | 19:03.36 | 12:36.24 | 10:57.21 | 15:00.28 | |
| 22 | Lukasz Olenginski | Georgetown Running Company | 14:34.14 | 18:10.42 | 10:48.85 | 16:31.29 | 11:15.88 | 15:01.17 | |
| 23 | Spencer Johnson | JR-3 | Marist | 11:52.67 | 17:53.51 | 13:31.90 | 13:22.88 | 14:17.01 | 15:02.11 |
| 25 | Collin Hahn | FR-1 | Virginia Tech | 15:48.34 | 12:38.68 | 14:54.15 | 13:32.87 | 11:26.42 | 15:03.18 |
| 27 | Matthew Guiod | Senior | Keystone Track Club | 17:38.02 | 12:21.52 | 14:37.17 | 13:33.87 | 15:31.42 | 15:04.29 |
| 28 | John Hughes | SO-2 | Allegheny | 11:27.59 | 15:59.01 | 17:47.57 | 16:26.15 | 16:44.24 | 15:04.72 |
| 30 | Alex Burks | FR-1 | SUNY Geneseo | 16:26.81 | 15:23.44 | 13:43.85 | 11:46.16 | 12:49.53 | 15:05.33 |
| 33 | John Panus | SR-4 | SUNY Geneseo | 18:46.67 | 14:59.52 | 16:12.21 | 15:35.86 | 11:03.28 | 15:08.60 |
| 35 | Jonathan Vallecorsa | SR-4 | Binghamton | 19:33.13 | 16:22.16 | 10:36.58 | 17:34.91 | 18:20.38 | 15:09.40 |
| 41 | Matt Baffuto | FR-1 | Marist | 16:54.93 | 14:10.35 | 17:22.36 | 13:52.06 | 14:46.92 | 15:14.35 |
| 44 | Evan Ward | SR-4 | Lehigh | 12:31.01 | 15:52.50 | 16:19.97 | 15:52.50 | 11:08.58 | 15:15.86 |
| 55 | Steven Rizzo | SO-2 | Marist | 16:09.94 | 14:56.04 | 12:00.53 | 16:28.42 | 16:28.42 | 15:23.75 |
| 56 | Andrew Snyder | SR-4 | John Carroll | 13:51.93 | 15:52.09 | 13:24.20 | 15:52.09 | 14:38.15 | 15:24.36 |
| 70 | Brendan Wortner | SR-4 | SUNY Geneseo | 15:01.93 | 11:09.47 | 16:34.91 | 18:07.89 | 13:10.35 | 15:29.82 |
| 84 | Dylan McCarthy | FR-1 | Oswego State | 14:16.20 | 20:04.32 | 16:09.10 | 11:08.02 | 17:33.78 | 15:40.87 |
| 94 | Andrew Zeccola | SR-4 | Rochester | 11:39.09 | 11:20.20 | 16:41.40 | 17:00.29 | 15:54.16 | 15:44.71 |
| 97 | Will Ronchetti | SO-2 | Cornell | 20:21.84 | 17:02.94 | 13:15.62 | 15:09.28 | 17:59.77 | 15:47.16 |
| Mathew Moody | SR-4 | Adelphi | DNF | DNF | DNF | DNF | DNF | DNF | |
| Wade Miller | Unattached | DNF | DNF | DNF | DNF | DNF | DNF |